Regional Weather Roundup
Issued by NWS

Home | Current Version | Previous Version | Text Only | Print | Product List | Glossary On
Versions: 1 2 3 4 5 6 7 8 9 10 11 12 13 14 15 16 17 18 19 20 21 22 23 24 25 26 27 28 29 30 31 32 33 34 35 36 37 38 39 40 41 42 43 44 45 46 47 48 49 50
000
ASHW40 PHFO 220043
RWRHI

WEATHER ROUNDUP FOR HAWAII
NATIONAL WEATHER SERVICE HONOLULU HI
200 PM HST THU AUG 21 2014

THIS IS AN AUTOMATED REPORT THAT HAS NOT BEEN QUALITY CONTROLLED.

NOTE..."FAIR" INDICATES FEW OR NO CLOUDS BELOW 12,000 FEET WITH NO
SIGNIFICANT WEATHER AND/OR OBSTRUCTIONS TO VISIBILITY.

* - THESE SITES REPORT LIMITED FIELDS

HIZ001>004-220100-
KAUAI-NIIHAU-

CITY           SKY/WX    TMP DP  RH WIND       PRES   REMARKS
LIHUE APT      PTSUNNY   83  72  69 E13       30.03F
PORT ALLEN*      N/A     86 N/A N/A VRB3G14     N/A
POIPU*           N/A     84 N/A N/A NE9G17      N/A
PRINCEVILLE*   NOT AVBL
KOKOLE POINT*  NOT AVBL
MOLOAA DAIRY*  NOT AVBL
WAIMEA HTS*      N/A     95  64  36 W8G15       N/A  HX  97
PUU OPAE*        N/A     81  64  57 W3G15       N/A
PUU LUA*       NOT AVBL
MAKAHA RIDGE*    N/A     84  63  48 CALM        N/A
$$

HIZ005>011-220100-
OAHU-

CITY           SKY/WX    TMP DP  RH WIND       PRES   REMARKS
HONOLULU       PTSUNNY   86  69  56 NE13      29.99F HX  90
KALAELOA       PTSUNNY   88  69  53 E10G18    30.00F HX  92
KANEOHE MCB    CLOUDY    82  72  70 E7        30.02F
WHEELER FIELD  CLOUDY    82  70  65 NE10      30.01S
BELLOWS*         N/A    N/A N/A N/A NE13        N/A
KAHUKU*          N/A    N/A N/A N/A E8G18       N/A
WHEELER*       NOT AVBL
WAIANAE HARBOR NOT AVBL
DILLINGHAM*      N/A     91  70  49 NE8G17      N/A  HX  97
KAHUKU TRN*      N/A     79  72  78 E10G20      N/A
KAWAILOA*      NOT AVBL
KII*             N/A     81  73  78 E15         N/A
MAKUA RANGE*     N/A     84  70  61 W5          N/A
OAHU FOREST NW   N/A     68  68 100 N16G26      N/A
SCHOFIELD BRK*   N/A     79  68  69 MISG        N/A
SCHOFIELD S*   NOT AVBL
WAIANAE VLY*     N/A     84  68  58 SE5G17      N/A
KUAOKALA*        N/A     79  66  65 CALM        N/A
HONOULIUULI*   NOT AVBL
MOKUOLOE IS*     N/A    N/A N/A N/A MISG        N/A
PALEHUA*         N/A     91  73  55 CALM        N/A  HX 100
WAIAWA PHB*    NOT AVBL
$$

HIZ012>013-220100-
MOLOKAI-

CITY           SKY/WX    TMP DP  RH WIND       PRES   REMARKS
MOLOKAI AIRPT  MOSUNNY   85  72  65 NE18G29   30.00F HX  91
KALAUPAPA      NOT AVBL
MAKAPULAPAI*     N/A     84  70  61 E16G26      N/A
MOLOKAI 1*       N/A     79  70  73 NE8G25      N/A
PUU ALII*        N/A     66  65  96 E2          N/A
$$

HIZ016-220100-
KAHOOLAWE-

CITY           SKY/WX    TMP DP  RH WIND       PRES   REMARKS
KAHOOLAWE*       N/A     77 N/A N/A E21G30      N/A
HAKIOAWA*      NOT AVBL
HONOKANAIA*      N/A     85  68  56 E20G35    29.99F
KANELOA*         N/A     81  68  65 E22G33    30.09F
KEALIALALO*    NOT AVBL
LUA MAKIKA*    NOT AVBL
$$

HIZ014>015-220100-
LANAI-

CITY           SKY/WX    TMP DP  RH WIND       PRES   REMARKS
LANAI CITY     CLOUDY    80  69  69 S6        30.05F
LANAI 1*         N/A     81  75  83 NE18G31     N/A
$$

HIZ017>028-220100-
MAUI-

CITY           SKY/WX    TMP DP  RH WIND       PRES   REMARKS
KAHULUI        MOSUNNY   87  71  58 NE23G31   29.98F HX  93
KAPALUA-W MAUI MOSUNNY   86  68  54 NE17      29.99F
HANA AIRPORT   CLOUDY    82  72  69 E10       30.04S
HANA*            N/A     82 N/A N/A E7G13       N/A
HALEAKALA SUMM   N/A     63  43  48 SE6         N/A
MAALAEA BAY*   NOT AVBL
HALEAKALA*     NOT AVBL
KAUPO GAP*       N/A     73  72  94 SW5G12      N/A
KULA 1*          N/A     60  58  94 NW5         N/A
$$

HIZ023>026-220100-
BIG ISLAND OF HAWAII COAST AND LOWER SLOPES-

CITY           SKY/WX    TMP DP  RH WIND       PRES   REMARKS
KAILUA KONA    SUNNY     86  72  62 W9        29.94F HX  92
HILO           CLOUDY    82  69  64 NE8       30.01S
HONOKAA*       NOT AVBL
KAWAIHAE MWT*    N/A     84 N/A N/A W8          N/A
KAWAIHAE*        N/A     82 N/A N/A W7          N/A
SOUTH POINT*     N/A     77 N/A N/A NE20G26     N/A
UPOLU AIRPORT*   N/A    N/A N/A N/A E22G31      N/A
KAMUELA*       PTCLDY    79  63  57 NE23      30.09S
HAKALAU*         N/A     65  60  85 E3G9        N/A
KALOKO-HONOKO*   N/A     86  73  66 W8        29.94F HX  93
PALI 2*          N/A     81  66  61 N16G26      N/A
KEALAKOMO*       N/A     84  72  65 NE16G23     N/A
KAUPULEHU*       N/A     88  70  55 W10G17      N/A  HX  92
KAPAPALA*        N/A     75  70  84 SE5G12      N/A
LOWER KAHUKU*  NOT AVBL
PUHE CS*       NOT AVBL
PUHO CS*         N/A     85  71  62 W5G12       N/A  HX  90
PTA KEAMUKU*     N/A     77  63  61 NE21G30     N/A
WAIKOLOA*        N/A     88  64  45 NE18G26     N/A
$$

HIZ027>028-220100-
BIG ISLAND OF HAWAII INTERIOR AND SUMMMITS-

CITY           SKY/WX    TMP DP  RH WIND       PRES   REMARKS
BRADSHAW FIELD MOSUNNY   72  58  61 W15       30.33F
MK VISITOR CEN NOT AVBL
MAUNA KEA*       N/A     45  25  45 S10         N/A
MAUNA LOA*       N/A     52  37  58 MISG        N/A
MAUNA LOA 1*   NOT AVBL
PTA KIPUKA*      N/A     73  59  60 N9G18       N/A
PTA RANGE 17*    N/A     72  59  64 W13G20      N/A
PTA WEST*        N/A     75  61  60 NW12G18     N/A
NENE CABIN*    NOT AVBL
AHUMOA*          N/A     68  61  77 N7G15       N/A
PTA PORTABLE*  NOT AVBL
PUU MALI*      NOT AVBL
$$

HIC003-220100-
NORTHWEST ISLANDS-

CITY           SKY/WX    TMP DP  RH WIND       PRES   REMARKS
MIDWAY ISLAND  MOSUNNY   91  75  59 SW13      30.00F HX 102
MIDWAY NOS*    NOT AVBL
FRENCH FRIGATE NOT AVBL
$$

PHZ110>124-180-220100-
BUOY REPORTS

STATION/POSITION TIME  TEMP    WIND        PRES    WAVE   SWELL
                       AIR SEA DIR/SP/G            HT/PER HT/DIR
                 (UTC) (F)     (DEG/KT/KT) (MB)    (FT/S) (FT/D)
BUOY 51001       NOT AVBL
BUOY 51101       NOT AVBL
BUOY 51100       2300   78 79   70/  8/ 12 1017.9F   5/ 9   5/100
BUOY 51003       0000   81 82   70/ 10/ 14 1014.9F   5/15   5
BUOY 51004       NOT AVBL
BARBERS PT BUOY  NOT AVBL
WAIMEA BAY BUOY  0000      81                N/A     3/17   2/260
KAILUA BAY BUOY  0000      81                N/A     5/ 7   2/140
LANAI BUOY       NOT AVBL
BARBERS PT 2     0000      82                N/A     4/17   3/210
PAUWELA MAUI     0000      80                N/A     7/ 8   2/ 90
HILO             NOT AVBL
KANEOHE BAY BUOY 0000      80                N/A     4/ 6   2/ 80
HANALEI KAUAI    NOT AVBL
KAHULUI HARBOR   0000   81 81   30/ 15/ 19 1015.0F
HONOLULU HARBOR  0000   83      60/  7/ 10 1015.8F
KILO NALU        NOT AVBL
HILO HARBOR      0000   81      50/  6/  7 1015.4F
MOKUOLOE         0000      82              1016.5F
NAWILIWILI       0000      83                N/A
WHOTS BUOY       NOT AVBL
BUOY 51028       NOT AVBL
$$

......................KEY........................................
  SKY/WX - SKY CONDITIONS/PRESENT WEATHER
  TMP    - TEMPERATURE IN FAHRENHEIT
  DWPT   - DEWPOINT IN FAHRENHEIT
  RH     - RELATIVE HUMIDITY IN PERCENT
  WIND   - DIRECTION AND SPEED /MPH FOR ISLANDS...KTS FOR BUOYS/
  PRES   - MEAN SEA LEVEL PRESSURE IN INCHES OF HG
  VSB    - VISIBILITY IN MILES
  HX     - HEAT INDEX
  WCI    - WIND CHILL INDEX
  VRB    - VARIABLE WIND DIRECTION
  N/A    - NOT AVAILABLE



USA.gov is the U.S. government's official web portal to all federal, state and local government web resources and services.